Zurück zum Katalog

YUNHAI 1-04

AktivWissenschaftSSO
NORAD 58073·PAYLOAD·🇨🇳 China

Gestartet Oct 15, 2023 von Jiuquan Satellite Launch Center

Loading…

Nächste Überflüge (nächste 24 Stunden)

TLE

AktuellSource: Space-Track

Epoche: Sep 14, 2026, 23:12 UTC

1 58073U 23159A   26257.96726146  .00000275  00000-0  11729-3 0  9993
2 58073  98.4948 281.9680 0000205   4.4729 355.6457 14.32620316152656

Verfolge YUNHAI 1-04 in Echtzeit mit AllMySat

Download on the App Store